Livingston, MT

1:48 AM MDT on April 25, 2017 (GMT -0600)
Mission

Weather History for KLVM - March, 2012

Change the Weather History Date:

Saturday, March 31, 2012

  Actual Average Record
Temperature  
Mean Temperature 58 °F 39 °F  
Max Temperature 72 °F 51 °F 75 °F (2004)
Min Temperature 46 °F 27 °F 8 °F (2008)
Degree Days  
Heating Degree Days 6 26  
Month to date heating degree days 911  
Since 1 July heating degree days 6259  
Cooling Degree Days 0 0  
Month to date cooling degree days 0  
Year to date cooling degree days 0  
Growing Degree Days 8 (Base 50)    
Moisture  
Dew Point 36 °F    
Average Humidity 42    
Maximum Humidity 66    
Minimum Humidity 26    
Precipitation  
Precipitation 0.00 in 0.04 in 0.30 in (2008)
Month to date precipitation 0.84  
Year to date precipitation 1.83  
Sea Level Pressure  
Sea Level Pressure 29.48 in    
Wind  
Wind Speed 22 mph (SW)    
Max Wind Speed 33 mph    
Max Gust Speed 43 mph    
Visibility 10 miles    
Events      
T = Trace of Precipitation, MM = Missing Value Source: NWS Daily Summary

Daily Weather History Graph

Daily Weather History Graph

Search for Another Location

Airport or City:

Trip Planner

Search our weather history database for the weather conditions in past years. The results will help you decide how hot, cold, wet, or windy it might be!

Date:

Astronomy

Mar. 31, 2012 Rise Set
Actual Time 7:02 AM MDT 7:49 PM MDT
Civil Twilight 6:32 AM MDT 8:19 PM MDT
Nautical Twilight 5:57 AM MDT 8:55 PM MDT
Astronomical Twilight 5:19 AM MDT 9:33 PM MDT
Moon 1:02 PM MDT (3/31) 3:21 AM MDT (3/31)
Length of Visible Light 13h 46m
Length of Day
12h 46m
First Quarter, 59% of the Moon is Illuminated
Mar 31
First Quarter
Apr 6
Full
Apr 13
Last Quarter
Apr 21
New
Apr 29
First Quarter

Hourly Weather History & Observations

Time (MDT) Temp. Windchill Dew Point Humidity Pressure Visibility Wind Dir Wind Speed Gust Speed Precip Events Conditions
12:53 AM 55.9 °F - 35.1 °F 45% 29.62 in 10.0 mi SSW 24.2 mph 40.3 mph N/A   Overcast
1:53 AM 55.0 °F - 36.0 °F 49% 29.65 in 10.0 mi SSW 29.9 mph 36.8 mph N/A   Overcast
2:53 AM 54.0 °F - 37.0 °F 53% 29.64 in 10.0 mi SW 21.9 mph 34.5 mph N/A   Overcast
3:53 AM 55.0 °F - 37.0 °F 51% 29.60 in 10.0 mi SW 19.6 mph 33.4 mph N/A   Scattered Clouds
4:53 AM 55.0 °F - 37.0 °F 51% 29.59 in 10.0 mi SSW 24.2 mph 35.7 mph N/A   Clear
5:53 AM 55.4 °F - 35.6 °F 47% 29.68 in 10.0 mi SSW 18.4 mph 28.8 mph N/A   Mostly Cloudy
6:53 AM 57.0 °F - 36.0 °F 45% 29.58 in 10.0 mi SSW 24.2 mph 33.4 mph N/A   Overcast
7:53 AM 57.0 °F - 37.0 °F 47% 29.59 in 10.0 mi SW 21.9 mph 33.4 mph N/A   Mostly Cloudy
8:53 AM 57.0 °F - 37.0 °F 47% 29.57 in 10.0 mi SSW 26.5 mph 35.7 mph N/A   Mostly Cloudy
9:53 AM 59.0 °F - 37.0 °F 44% 29.57 in 10.0 mi SW 23.0 mph 31.1 mph N/A   Overcast
10:53 AM 64.9 °F - 37.9 °F 37% 29.54 in 10.0 mi SW 17.3 mph - N/A   Overcast
11:53 AM 66.0 °F - 37.9 °F 36% 29.50 in 10.0 mi SW 18.4 mph 25.3 mph N/A   Partly Cloudy
12:53 PM 71.1 °F - 37.0 °F 29% 29.46 in 10.0 mi SSW 21.9 mph 32.2 mph N/A   Mostly Cloudy
1:53 PM 69.1 °F - 36.0 °F 30% 29.44 in 10.0 mi SSW 25.3 mph 35.7 mph N/A   Clear
2:53 PM 68.0 °F - 35.1 °F 30% 29.42 in 10.0 mi SSW 33.4 mph 42.6 mph N/A   Mostly Cloudy
3:53 PM 68.0 °F - 34.0 °F 28% 29.39 in 10.0 mi SW 24.2 mph 34.5 mph N/A   Overcast
4:53 PM 70.0 °F - 34.0 °F 27% 29.36 in 10.0 mi WSW 31.1 mph 42.6 mph N/A   Scattered Clouds
5:53 PM 70.0 °F - 33.1 °F 26% 29.34 in 10.0 mi SW 26.5 mph 35.7 mph N/A   Clear
6:53 PM 66.9 °F - 33.1 °F 28% 29.34 in 10.0 mi SW 20.7 mph 29.9 mph N/A   Clear
7:53 PM 62.1 °F - 33.1 °F 34% 29.37 in 10.0 mi SSW 8.1 mph - N/A   Mostly Cloudy
8:53 PM 55.0 °F - 34.0 °F 45% 29.37 in 10.0 mi Calm Calm - N/A   Mostly Cloudy
9:53 PM 50.0 °F - 35.1 °F 57% 29.36 in 10.0 mi South 4.6 mph - N/A   Clear
10:53 PM 46.9 °F - 35.1 °F 63% 29.34 in 10.0 mi South 5.8 mph - N/A   Partly Cloudy
11:53 PM 46.0 °F 43.1 °F 35.1 °F 66% 29.31 in 10.0 mi SW 5.8 mph - N/A   Overcast